This demonstration page uses our WeatherBlox Daily Observations layout. Learn more.

Left ArrowRight Arrow

Hourly Observations for April 25, 2016

Temp ( °F °C ) Dew Point ( °F °C ) Humidity (%) Winds ( mph kmh ) Pressure ( in mb ) Visibility ( mi km ) Precip ( " mm )
12:51 am 00:51 Clear 65 18.3 20 -6.7 18 18 WNW 6 9 29.70 1006 10 16 0.00 0.00
1:51 am 01:51 Clear 65 18.3 28 -2.2 25 25 W 8 13 29.69 1005 10 16 0.00 0.00
2:51 am 02:51 Clear 65 18.3 30 -1.1 27 27 W 5 7 29.68 1005 10 16 0.00 0.00
3:51 am 03:51 Clear 60 15.6 29 -1.7 31 31 NE 3 6 29.67 1005 10 16 0.00 0.00
4:51 am 04:51 Clear 54 12.2 25 -3.9 33 33 SE 6 9 29.68 1005 10 16 0.00 0.00
5:51 am 05:51 Sunny 55 12.8 25 -3.9 31 31 VRB 5 7 29.70 1006 10 16 0.00 0.00
6:51 am 06:51 Sunny 65 18.3 31 -0.6 28 28 E 5 7 29.70 1006 10 16 0.00 0.00
7:51 am 07:51 Sunny 68 20 33 0.6 27 27 ESE 12 19 29.70 1006 10 16 0.00 0.00
8:51 am 08:51 Sunny 72 22.2 37 2.8 28 28 VRB 7 11 29.68 1005 10 16 0.00 0.00
9:51 am 09:51 Sunny 73 22.8 35 1.7 25 25 VRB 3 6 29.67 1005 10 16 0.00 0.00
10:51 am 10:51 Sunny 76 24.4 33 0.6 21 21 SSW 8 13 29.65 1004 10 16 0.00 0.00
11:51 am 11:51 Sunny 79 26.1 30 -1.1 17 17 NNW 7 11 29.62 1003 10 16 0.00 0.00
12:51 pm 12:51 Sunny 82 27.8 25 -3.9 12 12 SW 18 30 29.57 1001 10 16 0.00 0.00
1:51 pm 13:51 Sunny 83 28.3 25 -3.9 12 12 WSW 24 39 29.54 1001 10 16 0.00 0.00
2:51 pm 14:51 Mostly Sunny 83 28.3 24 -4.4 11 11 W 26 43 29.53 1000 10 16 0.00 0.00
3:51 pm 15:51 Sunny 81 27.2 22 -5.6 11 11 W 26 43 29.54 1000 10 16 0.00 0.00
4:51 pm 16:51 Sunny 78 25.6 20 -6.7 11 11 WSW 23 37 29.57 1001 10 16 0.00 0.00
5:51 pm 17:51 Sunny 76 24.4 21 -6.1 13 13 WSW 23 37 29.57 1001 10 16 0.00 0.00
6:51 pm 18:51 Sunny 71 21.7 16 -8.9 12 12 W 23 37 29.58 1002 10 16 0.00 0.00
7:51 pm 19:51 Clear 68 20 10 -12.2 10 10 WNW 13 20 29.61 1003 10 16 0.00 0.00
8:51 pm 20:51 Clear 65 18.3 8 -13.3 10 10 NNW 14 22 29.62 1003 10 16 0.00 0.00
9:51 pm 21:51 Clear 63 17.2 2 -16.7 8 8 NW 21 33 29.64 1004 10 16 0.00 0.00
10:51 pm 22:51 Clear 61 16.1 1 -17.2 9 9 NNW 10 17 29.65 1004 10 16 0.00 0.00
11:51 pm 23:51 Clear 58 14.4 2 -16.7 10 10 NW 13 20 29.65 1004 10 16 0.00 0.00

Powered by AerisWeather